Location: Dvur Kralove nad Labem
(50.4330°N, 15.8170°E)
Time: 15:03:07
(UTC+02:00)

ISS - Pass Details

Date: 19 May 2018
Orbit: 402 x 407 km, 51.6° (Epoch: 24 May)

Event Time Altitude Azimuth Distance (km) Brightness Sun altitude
Rises 04:05:01 0° 286° (WNW) 2,320 -0.3 -8.1°
Reaches altitude 10° 04:07:08 10° 281° (WNW) 1,458 -1.3 -7.9°
Maximum altitude 04:10:18 50° 205° (SSW) 520 -3.7 -7.5°
Drops below altitude 10° 04:13:28 10° 129° (SE) 1,453 -0.9 -7.2°
Sets 04:15:35 0° 124° (SE) 2,310 0.2 -6.9°
